| time (UTC) | temp C | wind direction | speed KPH | gust KPH | rain 1hr cm | rain 24hr cm | rain mn cm | humidity % | barometer mb |
| 20260901094512 | 21 | 211 | 0.0 | 0.0 | 0.00 | 0.03 | 0.03 | 98 | 1016.5 |
| 20260901093007 | 21 | 211 | 0.0 | 0.0 | 0.00 | 0.03 | 0.03 | 99 | 1016.3 |
| 20260901091507 | 21 | 211 | 0.0 | 0.0 | 0.03 | 0.03 | 0.03 | 99 | 1016.2 |
| 20260901090007 | 21 | 211 | 0.0 | 0.0 | 0.03 | 0.03 | 0.03 | 99 | 1016.2 |
| 20260901084504 | 21 | 211 | 0.0 | 0.0 | 0.03 | 0.03 | 0.03 | 98 | 1016.1 |
| 20260901083004 | 21 | 211 | 0.0 | 0.0 | 0.03 | 0.03 | 0.03 | 98 | 1016.1 |
| 20260901081500 | 21 | 211 | 0.0 | 0.0 | 0.00 | 0.00 | 0.00 | 99 | 1016.0 |
| 20260901080113 | 21 | 211 | 0.0 | 0.0 | 0.00 | 0.00 | 0.00 | 98 | 1016.0 |
| 20260901074623 | 22 | 211 | 0.0 | 0.0 | 0.00 | 0.00 | 0.00 | 98 | 1016.1 |
| 20260901073059 | 22 | 211 | 0.0 | 0.0 | 0.00 | 0.00 | 0.00 | 98 | 1016.0 |
| 20260901071526 | 22 | 211 | 0.0 | 0.0 | 0.00 | 0.00 | 0.00 | 98 | 1015.8 |
| 20260901070026 | 22 | 209 | 0.0 | 0.0 | 0.00 | 0.00 | 0.00 | 98 | 1015.9 |
| 20260901064523 | 22 | 209 | 0.0 | 0.0 | 0.00 | 0.00 | 0.00 | 98 | 1015.7 |
| 20260901063024 | 22 | 209 | 0.0 | 0.0 | 0.00 | 0.00 | 0.00 | 98 | 1015.7 |
| 20260901061521 | 22 | 209 | 0.0 | 0.0 | 0.00 | 0.00 | 0.00 | 98 | 1015.7 |
| 20260901060035 | 22 | 209 | 0.0 | 0.0 | 0.00 | 0.00 | 0.00 | 98 | 1015.8 |
| 20260901054549 | 22 | 209 | 0.0 | 0.0 | 0.00 | 0.00 | 0.00 | 98 | 1016.0 |
| 20260901053057 | 23 | 209 | 0.0 | 0.0 | 0.00 | 0.00 | 0.00 | 98 | 1016.1 |
| 20260901051508 | 23 | 209 | 0.0 | 0.0 | 0.00 | 0.00 | 0.00 | 97 | 1016.3 |
| 20260901050005 | 23 | 209 | 0.0 | 0.0 | 0.00 | 0.00 | 0.00 | 97 | 1016.2 |
| 20260901044502 | 23 | 209 | 0.0 | 0.0 | 0.00 | 0.00 | 0.00 | 97 | 1016.3 |
| 20260901043001 | 23 | 209 | 0.0 | 0.0 | 0.00 | 0.00 | 0.00 | 97 | 1016.3 |
| 20260901041501 | 23 | 209 | 0.0 | 0.0 | 0.00 | 0.00 | 0.00 | 97 | 1016.4 |
| 20260901040136 | 23 | 209 | 0.0 | 0.0 | 0.00 | 0.00 | 0.00 | 97 | 1016.5 |
| 20260901034558 | 23 | 208 | 0.0 | 0.0 | 0.00 | 0.00 | 0.00 | 97 | 1016.6 |
| 20260901033057 | 24 | 208 | 0.0 | 0.0 | 0.00 | 0.00 | 0.00 | 96 | 1016.5 |
| 20260901031559 | 24 | 208 | 0.0 | 0.0 | 0.00 | 0.00 | 0.00 | 96 | 1016.6 |
| 20260901024555 | 24 | 208 | 0.0 | 0.0 | 0.00 | 0.00 | 0.00 | 96 | 1016.6 |
| 20260901023100 | 25 | 208 | 0.0 | 0.0 | 0.00 | 0.00 | 0.00 | 96 | 1016.7 |
| 20260901021552 | 25 | 208 | 0.0 | 0.0 | 0.00 | 0.00 | 0.00 | 95 | 1016.6 |
| 20260901020055 | 25 | 208 | 0.0 | 0.0 | 0.00 | 0.00 | 0.00 | 95 | 1016.5 |
| 20260901014548 | 25 | 207 | 0.0 | 0.0 | 0.00 | 0.00 | 0.00 | 95 | 1016.4 |
| 20260901013055 | 25 | 207 | 0.0 | 0.0 | 0.00 | 0.00 | 0.00 | 95 | 1016.2 |
| 20260901011548 | 25 | 207 | 0.0 | 0.0 | 0.00 | 0.00 | 0.00 | 94 | 1016.0 |
| 20260901004516 | 26 | 207 | 0.0 | 1.6 | 0.00 | 0.00 | 0.00 | 93 | 1015.7 |
| 20260901003021 | 26 | 207 | 0.0 | 0.0 | 0.00 | 0.00 | 0.00 | 92 | 1015.5 |
| 20260901001525 | 26 | 207 | 0.0 | 3.2 | 0.00 | 0.00 | 0.00 | 91 | 1015.3 |
| 20260901000013 | 26 | 206 | 0.0 | 6.4 | 0.00 | 0.00 | 0.00 | 90 | 1015.2 |
| 20260831234512 | 27 | 207 | 4.8 | 8.0 | 0.00 | 0.00 | 0.00 | 89 | 1015.3 |
| 20260831233029 | 28 | 190 | 0.0 | 0.0 | 0.00 | 0.00 | 0.00 | 86 | 1015.3 |
| 20260831231517 | 28 | 183 | 0.0 | 0.0 | 0.00 | 0.00 | 0.00 | 84 | 1015.4 |
| 20260831230010 | 29 | 175 | 0.0 | 3.2 | 0.00 | 0.00 | 0.00 | 81 | 1015.5 |
| 20260831224508 | 30 | 167 | 3.2 | 8.0 | 0.00 | 0.00 | 0.00 | 79 | 1015.5 |
| 20260831223007 | 31 | 85 | 0.0 | 1.6 | 0.00 | 0.00 | 0.00 | 73 | 1015.6 |
| 20260831221505 | 31 | 40 | 0.0 | 9.7 | 0.00 | 0.00 | 0.00 | 70 | 1015.6 |
| 20260831220004 | 32 | 43 | 4.8 | 11.3 | 0.00 | 0.00 | 0.00 | 65 | 1015.7 |
| 20260831214500 | 32 | 43 | 6.4 | 9.7 | 0.00 | 0.00 | 0.00 | 65 | 1015.8 |
| 20260831213106 | 33 | 28 | 3.2 | 11.3 | 0.00 | 0.00 | 0.00 | 61 | 1016.1 |
| 20260831211528 | 33 | 82 | 3.2 | 11.3 | 0.00 | 0.00 | 0.00 | 59 | 1016.2 |
| 20260831210026 | 32 | 76 | 1.6 | 8.0 | 0.00 | 0.00 | 0.00 | 63 | 1016.1 |
| 20260831204523 | 33 | 32 | 4.8 | 12.9 | 0.00 | 0.00 | 0.00 | 62 | 1016.1 |
| 20260831203022 | 33 | 52 | 6.4 | 12.9 | 0.00 | 0.00 | 0.00 | 61 | 1016.2 |
| 20260831201524 | 32 | 49 | 4.8 | 9.7 | 0.00 | 0.00 | 0.00 | 62 | 1016.4 |
| 20260831200017 | 32 | 57 | 1.6 | 9.7 | 0.00 | 0.00 | 0.00 | 63 | 1016.6 |
| 20260831194514 | 32 | 214 | 3.2 | 9.7 | 0.00 | 0.00 | 0.00 | 68 | 1016.7 |
| 20260831193024 | 33 | 173 | 0.0 | 6.4 | 0.00 | 0.00 | 0.00 | 62 | 1016.8 |
| 20260831191511 | 32 | 196 | 0.0 | 8.0 | 0.00 | 0.00 | 0.00 | 63 | 1017.0 |
| 20260831190016 | 32 | 153 | 8.0 | 14.5 | 0.00 | 0.00 | 0.00 | 63 | 1017.3 |
| 20260831184510 | 32 | 72 | 6.4 | 11.3 | 0.00 | 0.00 | 0.00 | 66 | 1017.4 |
| 20260831183005 | 32 | 24 | 3.2 | 11.3 | 0.00 | 0.00 | 0.00 | 70 | 1017.4 |
| 20260831181506 | 31 | 41 | 4.8 | 11.3 | 0.00 | 0.00 | 0.00 | 72 | 1017.8 |
| 20260831181501 | 31 | 43 | 4.8 | 11.3 | 0.00 | 0.00 | 0.00 | 73 | 1017.8 |
| 20260831180112 | 31 | 36 | 4.8 | 12.9 | 0.00 | 0.00 | 0.00 | 72 | 1017.7 |
| 20260831174554 | 30 | 77 | 6.4 | 12.9 | 0.00 | 0.00 | 0.00 | 74 | 1017.8 |
| 20260831173124 | 30 | 32 | 0.0 | 11.3 | 0.00 | 0.00 | 0.00 | 74 | 1018.0 |
| 20260831171523 | 30 | 17 | 1.6 | 14.5 | 0.00 | 0.00 | 0.00 | 75 | 1018.1 |
| 20260831170033 | 30 | 22 | 9.7 | 14.5 | 0.00 | 0.00 | 0.00 | 75 | 1018.1 |
| 20260831164520 | 29 | 67 | 6.4 | 14.5 | 0.00 | 0.00 | 0.00 | 78 | 1018.3 |
| 20260831163011 | 28 | 61 | 6.4 | 14.5 | 0.00 | 0.00 | 0.00 | 80 | 1018.2 |
| 20260831161508 | 27 | 41 | 1.6 | 12.9 | 0.00 | 0.00 | 0.00 | 83 | 1018.4 |
| 20260831160034 | 26 | 307 | 0.0 | 0.0 | 0.00 | 0.00 | 0.00 | 87 | 1018.5 |
| 20260831154533 | 25 | 311 | 0.0 | 0.0 | 0.00 | 0.00 | 0.00 | 90 | 1018.5 |
| 20260831153023 | 24 | 296 | 0.0 | 0.0 | 0.00 | 0.00 | 0.00 | 95 | 1018.5 |
| 20260831151521 | 23 | 213 | 0.0 | 0.0 | 0.00 | 0.00 | 0.00 | 98 | 1018.5 |
| 20260831150022 | 23 | 213 | 0.0 | 0.0 | 0.00 | 0.00 | 0.00 | 99 | 1018.7 |
| 20260831144512 | 23 | 213 | 0.0 | 0.0 | 0.00 | 0.00 | 0.00 | 99 | 1018.6 |
| 20260831143006 | 22 | 212 | 0.0 | 0.0 | 0.00 | 0.00 | 0.00 | 100 | 1018.5 |
| 20260831141501 | 22 | 212 | 0.0 | 0.0 | 0.00 | 0.00 | 0.00 | 100 | 1018.4 |
| 20260831140059 | 22 | 212 | 0.0 | 0.0 | 0.00 | 0.00 | 0.00 | 100 | 1018.3 |
| 20260831134553 | 22 | 212 | 0.0 | 0.0 | 0.00 | 0.00 | 0.00 | 100 | 1018.2 |
| 20260831133048 | 22 | 212 | 0.0 | 0.0 | 0.00 | 0.00 | 0.00 | 100 | 1018.3 |
| 20260831131543 | 21 | 212 | 0.0 | 0.0 | 0.00 | 0.00 | 0.00 | 100 | 1018.4 |
| 20260831130047 | 21 | 212 | 0.0 | 0.0 | 0.00 | 0.00 | 0.00 | 100 | 1018.3 |
| 20260831124541 | 21 | 212 | 0.0 | 0.0 | 0.00 | 0.00 | 0.00 | 100 | 1018.1 |
| 20260831123042 | 20 | 212 | 0.0 | 0.0 | 0.00 | 0.00 | 0.00 | 99 | 1018.1 |
| 20260831121543 | 20 | 212 | 0.0 | 0.0 | 0.00 | 0.00 | 0.00 | 99 | 1018.2 |
| 20260831120037 | 20 | 212 | 0.0 | 0.0 | 0.00 | 0.00 | 0.00 | 99 | 1018.1 |
| 20260831114535 | 20 | 212 | 0.0 | 0.0 | 0.00 | 0.00 | 0.00 | 99 | 1018.0 |
| 20260831113032 | 20 | 212 | 0.0 | 0.0 | 0.00 | 0.00 | 0.00 | 99 | 1017.8 |
| 20260831111529 | 20 | 212 | 0.0 | 0.0 | 0.00 | 0.00 | 0.00 | 99 | 1017.6 |
| 20260831110029 | 20 | 212 | 0.0 | 0.0 | 0.00 | 0.00 | 0.00 | 99 | 1017.5 |
| 20260831104530 | 20 | 212 | 0.0 | 0.0 | 0.00 | 0.00 | 0.00 | 99 | 1017.5 |
| 20260831103056 | 20 | 212 | 0.0 | 0.0 | 0.00 | 0.00 | 0.00 | 99 | 1017.4 |
| 20260831101556 | 20 | 212 | 0.0 | 0.0 | 0.00 | 0.00 | 0.00 | 99 | 1017.3 |
| 20260831100105 | 20 | 212 | 0.0 | 0.0 | 0.00 | 0.00 | 0.00 | 99 | 1017.3 |